This is the latest recevied weather packets stored in our database for station/object EB2EMZ-15. If no packets are shown the sender has not sent any weather packets the latest 10 day(s).
| Time | Temp. | Humidity | Pressure | Rain* | Wind** | Luminosity | Snow |
|---|---|---|---|---|---|---|---|
| 1777481113 | 17.78° C | 77% | 986.9 hPa | 0 mm | - | - | - |
| 1777480815 | 17.78° C | 77% | 986.7 hPa | 0 mm | - | - | - |
| 1777480514 | 17.78° C | 77% | 986.8 hPa | 0 mm | - | - | - |
| 1777480215 | 17.78° C | 77% | 986.9 hPa | 0 mm | - | - | - |
| 1777479912 | 17.78° C | 77% | 986.8 hPa | 0 mm | - | - | - |
| 1777479615 | 17.78° C | 76% | 986.5 hPa | 0 mm | - | - | - |
| 1777479313 | 17.78° C | 75% | 986.9 hPa | 0 mm | - | - | - |
| 1777479015 | 17.78° C | 74% | 986.5 hPa | 0 mm | - | - | - |
| 1777478713 | 17.78° C | 72% | 986.3 hPa | 0 mm | - | - | - |
| 1777478413 | 18.33° C | 71% | 986.6 hPa | 0 mm | - | - | - |
| 1777478113 | 18.89° C | 68% | 986.7 hPa | 0 mm | - | - | - |
| 1777477815 | 20° C | 64% | 987 hPa | 0 mm | - | - | - |
| 1777477512 | 21.67° C | 64% | 986.8 hPa | 0 mm | - | - | - |
| 1777477215 | 22.22° C | 62% | 987.7 hPa | 0 mm | - | - | - |
| 1777476912 | 22.78° C | 60% | 986.3 hPa | 0 mm | - | - | - |
| 1777476615 | 22.78° C | 59% | 985.8 hPa | 0 mm | - | - | - |
| 1777476312 | 23.33° C | 58% | 986 hPa | 0 mm | - | - | - |
| 1777476015 | 23.33° C | 57% | 985.9 hPa | 0 mm | - | - | - |
| 1777475713 | 23.89° C | 56% | 985.9 hPa | 0 mm | - | - | - |
| 1777475415 | 23.89° C | 55% | 985.7 hPa | 0 mm | - | - | - |
| 1777475113 | 24.44° C | 55% | 985.7 hPa | 0 mm | - | - | - |
| 1777474812 | 24.44° C | 56% | 985.7 hPa | 0 mm | - | - | - |
| 1777474512 | 24.44° C | 56% | 985.6 hPa | 0 mm | - | - | - |
| 1777474215 | 24.44° C | 56% | 985.7 hPa | 0 mm | - | - | - |
| 1777473912 | 24.44° C | 57% | 985.7 hPa | 0 mm | - | - | - |
* Rain latest hour (hover to see other rain measurements)
** Current wind speed in m/s (hover to see current wind gust speed)